Burke Lakefront Airport
KBKL : now visible

Airfield :











YOU CAN JOIN US ON...

 
LOGIN :

Register | Disclaimer

   EN    FR    IT 

 









Legend :    VFR   Marginal VFR   IFR   Intensive IFR   Very Intensive IFR
Visi :
Ceiling :
>= 8 km
>= 3000ft
5 to 8 km
1000 to 3000 ft
1500m to 5 km
500 to 1000 ft
800 to 1500m
200 to 500 ft
< 800m
< 200 ft
Symbols :   Thunderstorms  Fog  Heavy snow  Heavy precipitations  Wind > 20 kt






- Airport Elevation : 583 ft
- IATA code : BKL


KBKL - Burke Lakefront

CURRENT METAR :
  • 162053Z 06011KT 10SM CLR 03/M08 A3033 RMK AO2 SLP275 T00331083 56016

EXPIRED METARs :
  • 161953Z 03016KT 10SM CLR 03/M06 A3033 RMK AO2 SLP276 T00281061
  • 161853Z 03015KT 10SM CLR 03/M06 A3035 RMK AO2 SLP283 T00331061

TAF N/A



MET'MAP, your aeronautical weather chart ! - Copyright ORBIFLY December 2007 - Disclaimer

ORBIFLY MET'MAP TEAM :

Programming & Development : Alexandra Zaïnal
Concept & Development : Baudouin d'Aumeries
Co-Development & Prog : Marc-Olivier Méhu
Technical & hardware support : Manuel Goepfert

Contact : metmap@orbifly.com




SOURCES & CREDITS :

   NOAA       Earth
Advisory